Peoria, IL

7:26 PM CDT on October 20, 2017 (GMT -0500)
Greater Peoria Regional

Weather History for KPIA - December, 2012

Change the Weather History Date:

Sunday, December 30, 2012

  Actual Average Record
Temperature  
Mean Temperature 25 °F 25 °F  
Max Temperature 37 °F 33 °F 64 °F (2002)
Min Temperature 12 °F 18 °F -12 °F (1909)
Degree Days  
Heating Degree Days 40 40  
Month to date heating degree days 875 1090  
Since 1 July heating degree days 2109 2238  
Cooling Degree Days 0 0  
Month to date cooling degree days 0 0  
Year to date cooling degree days 1374 1039  
Moisture  
Dew Point 19 °F    
Average Humidity 78    
Maximum Humidity 92    
Minimum Humidity 63    
Precipitation  
Precipitation 0.00 in 0.06 in 0.76 in (1922)
Month to date precipitation 1.87 2.35  
Year to date precipitation 26.97 36.42  
Snow  
Snow 0.00 in 0.30 in 4.10 in (1998)
Month to date snowfall 2.2 6.9  
Since 1 July snowfall 2.2 8.0  
Snow Depth 1.00 in    
Sea Level Pressure  
Sea Level Pressure 30.30 in    
Wind  
Wind Speed 7 mph (SSW)    
Max Wind Speed 20 mph    
Max Gust Speed 25 mph    
Visibility 8 miles    
Events      
T = Trace of Precipitation, MM = Missing Value Source: NWS Daily Summary

Daily Weather History Graph

Daily Weather History Graph

Search for Another Location

Airport or City:

Trip Planner

Search our weather history database for the weather conditions in past years. The results will help you decide how hot, cold, wet, or windy it might be!

Date:

Astronomy

Dec. 30, 2012 Rise Set
Actual Time 7:22 AM CST 4:40 PM CST
Civil Twilight 6:51 AM CST 5:11 PM CST
Nautical Twilight 6:17 AM CST 5:46 PM CST
Astronomical Twilight 5:43 AM CST 6:19 PM CST
Moon 7:12 PM CST (12/30) 8:30 AM CST (12/30)
Length of Visible Light 10h 20m
Length of Day
9h 18m
Waning Gibbous, 95% of the Moon is Illuminated
Dec 30
Waning Gibbous
Jan 4
Last Quarter
Jan 11
New
Jan 18
First Quarter
Jan 26
Full

Hourly Weather History & Observations

Time (CST) Temp. Windchill Dew Point Humidity Pressure Visibility Wind Dir Wind Speed Gust Speed Precip Events Conditions
12:54 AM 12.9 °F - 10.0 °F 88% 30.32 in 6.0 mi Calm Calm - N/A   Clear
1:54 AM 14.0 °F 8.2 °F 10.0 °F 84% 30.32 in 5.0 mi South 3.5 mph - N/A   Clear
2:54 AM 12.9 °F - 10.0 °F 88% 30.35 in 6.0 mi Calm Calm - N/A   Clear
3:54 AM 12.9 °F 6.9 °F 10.0 °F 88% 30.37 in 6.0 mi SW 3.5 mph - N/A   Clear
4:54 AM 14.0 °F - 10.9 °F 88% 30.35 in 6.0 mi Calm Calm - N/A   Clear
5:54 AM 14.0 °F - 10.9 °F 88% 30.36 in 6.0 mi Calm Calm - N/A   Clear
6:54 AM 12.9 °F - 10.0 °F 88% 30.38 in 6.0 mi Calm Calm - N/A   Clear
7:54 AM 14.0 °F 8.2 °F 10.9 °F 88% 30.39 in 5.0 mi SW 3.5 mph - N/A   Clear
8:54 AM 19.0 °F 11.1 °F 16.0 °F 88% 30.40 in 5.0 mi SW 5.8 mph - N/A   Clear
9:54 AM 23.0 °F 17.0 °F 19.0 °F 85% 30.39 in 6.0 mi SSW 4.6 mph - N/A   Clear
10:54 AM 28.0 °F 19.3 °F 19.9 °F 72% 30.39 in 9.0 mi SW 9.2 mph - N/A   Clear
11:54 AM 30.9 °F 22.2 °F 19.9 °F 64% 30.37 in 10.0 mi SW 10.4 mph - N/A   Clear
12:54 PM 34.0 °F 27.2 °F 23.0 °F 64% 30.32 in 10.0 mi SSW 8.1 mph - N/A   Clear
1:54 PM 36.0 °F 29.6 °F 24.1 °F 62% 30.29 in 10.0 mi SSW 8.1 mph - N/A   Clear
2:54 PM 36.0 °F 28.5 °F 25.0 °F 64% 30.28 in 10.0 mi South 10.4 mph - N/A   Clear
3:54 PM 36.0 °F 29.0 °F 25.0 °F 64% 30.28 in 10.0 mi South 9.2 mph - N/A   Clear
4:54 PM 34.0 °F 26.6 °F 25.0 °F 70% 30.26 in 10.0 mi South 9.2 mph - N/A   Clear
5:54 PM 33.1 °F 25.5 °F 26.1 °F 75% 30.25 in 10.0 mi South 9.2 mph - N/A   Clear
6:54 PM 33.1 °F 23.9 °F 26.1 °F 75% 30.24 in 10.0 mi South 12.7 mph - N/A   Clear
7:54 PM 32.0 °F 21.2 °F 25.0 °F 75% 30.22 in 10.0 mi South 16.1 mph - N/A   Clear
8:54 PM 32.0 °F 21.6 °F 25.0 °F 75% 30.20 in 10.0 mi South 15.0 mph - N/A   Clear
9:54 PM 32.0 °F 22.1 °F 25.0 °F 75% 30.18 in 10.0 mi South 13.8 mph - N/A   Clear
10:54 PM 33.1 °F 23.4 °F 25.0 °F 72% 30.16 in 10.0 mi SSW 13.8 mph - N/A   Clear
11:54 PM 33.1 °F 24.4 °F 25.0 °F 72% 30.14 in 10.0 mi SSW 11.5 mph - N/A   Clear